Weather History for KCIR - May, 2013

Change the Weather History Date:

Sunday, May 5, 2013

  Actual Average Record
Temperature  
Mean Temperature 52 °F -  
Max Temperature 59 °F 75 °F 94 °F (1952)
Min Temperature 44 °F 56 °F 42 °F (1988)
Degree Days  
Heating Degree Days 14    
Growing Degree Days 2 (Base 50)    
Moisture  
Dew Point 48 °F    
Average Humidity 84    
Maximum Humidity 88    
Minimum Humidity 79    
Precipitation  
Precipitation 0.06 in - - ()
Sea Level Pressure  
Sea Level Pressure 29.90 in    
Wind  
Wind Speed 5 mph (WNW)    
Max Wind Speed 9 mph    
Max Gust Speed -    
Visibility 10 miles    
Events Rain    
Averages and records for this station are not official NWS values.
T = Trace of Precipitation, MM = Missing Value Source: NWS Daily Summary

Daily Weather History Graph

Daily Weather History Graph

Search for Another Location

Airport or City:

Trip Planner

Search our weather history database for the weather conditions in past years. The results will help you decide how hot, cold, wet, or windy it might be!

Date:

Astronomy

May. 05, 2013 Rise Set
Actual Time 5:57 AM CDT 7:49 PM CDT
Civil Twilight 5:29 AM CDT 8:18 PM CDT
Nautical Twilight 4:55 AM CDT 8:52 PM CDT
Astronomical Twilight 4:18 AM CDT 9:29 PM CDT
Moon 3:22 AM CDT (5/5) 3:54 PM CDT (5/5)
Length of Visible Light 14h 48m
Length of Day
13h 51m
Waning Crescent, 18% of the Moon is Illuminated
May 5
Waning Crescent
May 9
New
May 17
First Quarter
May 24
Full
May 31
Last Quarter

Hourly Weather History & Observations

Time (CDT) Temp. Windchill Dew Point Humidity Pressure Visibility Wind Dir Wind Speed Gust Speed Precip Events Conditions
12:15 AM 48.4 °F - 42.8 °F 81% 29.95 in 10.0 mi North 5.8 mph - N/A   Mostly Cloudy
12:35 AM 48.0 °F - 42.6 °F 82% 29.96 in 10.0 mi NNE 4.6 mph - N/A   Overcast
12:55 AM 47.3 °F - 42.1 °F 82% 29.95 in 10.0 mi North 4.6 mph - N/A   Scattered Clouds
1:15 AM 47.3 °F - 41.9 °F 82% 29.95 in 10.0 mi North 4.6 mph - N/A   Clear
1:35 AM 46.4 °F 43.5 °F 41.4 °F 83% 29.95 in 10.0 mi North 5.8 mph - N/A   Clear
1:55 AM 45.9 °F 44.6 °F 41.2 °F 84% 29.95 in 10.0 mi NNW 3.5 mph - N/A   Clear
2:15 AM 45.1 °F 42.0 °F 41.0 °F 85% 29.94 in 10.0 mi NNW 5.8 mph - N/A   Clear
2:35 AM 44.8 °F 43.3 °F 40.6 °F 85% 29.94 in 10.0 mi North 3.5 mph - N/A   Clear
2:55 AM 44.8 °F 42.4 °F 41.0 °F 87% 29.93 in 10.0 mi North 4.6 mph - N/A   Clear
3:15 AM 44.6 °F - 41.0 °F 87% 29.93 in 10.0 mi Calm Calm - N/A   Clear
3:35 AM 44.6 °F 42.2 °F 41.0 °F 87% 29.93 in 10.0 mi NNW 4.6 mph - N/A   Clear
3:55 AM 44.6 °F 42.2 °F 41.0 °F 87% 29.92 in 10.0 mi NNW 4.6 mph - N/A   Clear
4:15 AM 44.6 °F 43.1 °F 41.0 °F 87% 29.93 in 10.0 mi North 3.5 mph - N/A   Clear
4:35 AM 44.8 °F - 41.4 °F 88% 29.93 in 10.0 mi Calm Calm - N/A   Clear
4:55 AM 45.0 °F 42.6 °F 41.5 °F 88% 29.93 in 10.0 mi NNW 4.6 mph - N/A   Clear
5:15 AM 45.9 °F 44.6 °F 42.4 °F 88% 29.92 in 10.0 mi NW 3.5 mph - N/A   Clear
5:35 AM 45.9 °F - 42.4 °F 88% 29.93 in 10.0 mi Calm Calm - N/A   Clear
5:55 AM 46.4 °F 45.2 °F 43.0 °F 88% 29.93 in 10.0 mi NNW 3.5 mph - N/A   Mostly Cloudy
6:15 AM 47.1 °F - 43.7 °F 88% 29.92 in 10.0 mi NW 3.5 mph - N/A   Overcast
6:35 AM 47.8 °F - 44.2 °F 87% 29.93 in 10.0 mi WNW 5.8 mph - N/A   Overcast
6:55 AM 47.8 °F - 43.9 °F 86% 29.93 in 10.0 mi WNW 5.8 mph - N/A   Overcast
7:15 AM 48.2 °F - 43.9 °F 85% 29.93 in 10.0 mi NW 6.9 mph - N/A Rain Light Rain
7:35 AM 48.2 °F - 43.9 °F 85% 29.92 in 10.0 mi NW 6.9 mph - N/A   Overcast
7:55 AM 48.4 °F - 43.9 °F 84% 29.91 in 10.0 mi NW 5.8 mph - N/A   Overcast
8:15 AM 48.4 °F - 44.2 °F 86% 29.91 in 4.0 mi NW 6.9 mph - N/A   Unknown
8:35 AM 49.1 °F - 45.3 °F 87% 29.91 in 5.0 mi NW 4.6 mph - 0.01 in   Unknown
8:55 AM 50.0 °F - 46.0 °F 86% 29.91 in 3.0 mi NW 5.8 mph - 0.03 in   Unknown
9:15 AM 50.0 °F - 46.0 °F 86% 29.91 in 7.0 mi NW 6.9 mph - 0.01 in Rain Rain
9:35 AM 50.2 °F - 46.6 °F 87% 29.90 in 10.0 mi NW 8.1 mph - 0.02 in Rain Rain
9:55 AM 50.2 °F - 46.6 °F 87% 29.89 in 10.0 mi WNW 8.1 mph - 0.02 in Rain Rain
10:15 AM 51.1 °F - 47.5 °F 87% 29.90 in 10.0 mi NNW 8.1 mph - N/A Rain Light Rain
10:35 AM 51.1 °F - 47.5 °F 87% 29.91 in 10.0 mi Calm Calm - 0.01 in   Light Drizzle
10:55 AM 51.8 °F - 48.2 °F 88% 29.90 in 10.0 mi NW 5.8 mph - 0.01 in   Light Drizzle
11:15 AM 52.3 °F - 48.6 °F 87% 29.89 in 10.0 mi WNW 9.2 mph - N/A   Drizzle
11:35 AM 52.2 °F - 48.4 °F 87% 29.91 in 10.0 mi NW 8.1 mph - N/A   Drizzle
11:55 AM 52.9 °F - 48.9 °F 86% 29.90 in 10.0 mi West 4.6 mph - N/A   Overcast
12:15 PM 52.7 °F - 48.7 °F 86% 29.90 in 10.0 mi WNW 4.6 mph - N/A   Overcast
12:35 PM 54.5 °F - 50.2 °F 85% 29.88 in 10.0 mi West 4.6 mph - N/A   Overcast
1:15 PM 56.7 °F - 50.9 °F 81% 29.88 in 10.0 mi West 6.9 mph - N/A   Overcast
1:35 PM 56.8 °F - 50.9 °F 80% 29.87 in 10.0 mi West 6.9 mph - N/A   Overcast
1:55 PM 57.2 °F - 51.1 °F 80% 29.87 in 10.0 mi West 5.8 mph - N/A   Overcast
2:15 PM 57.9 °F - 51.4 °F 79% 29.88 in 10.0 mi West 5.8 mph - N/A   Overcast
2:35 PM 57.0 °F - 50.5 °F 79% 29.88 in 10.0 mi WSW 5.8 mph - N/A   Overcast
2:55 PM 57.2 °F - 51.1 °F 80% 29.88 in 10.0 mi West 5.8 mph - N/A   Overcast
3:15 PM 57.2 °F - 51.1 °F 80% 29.87 in 10.0 mi WSW 6.9 mph - N/A   Overcast
3:35 PM 58.1 °F - 52.2 °F 81% 29.87 in 10.0 mi West 6.9 mph - N/A   Overcast
3:55 PM 58.1 °F - 52.2 °F 81% 29.86 in 10.0 mi WSW 6.9 mph - N/A   Overcast
4:15 PM 58.3 °F - 52.2 °F 80% 29.86 in 10.0 mi SW 5.8 mph - N/A   Overcast
4:35 PM 58.5 °F - 52.2 °F 80% 29.86 in 10.0 mi West 5.8 mph - N/A   Overcast
4:55 PM 58.1 °F - 51.8 °F 80% 29.86 in 10.0 mi WSW 5.8 mph - N/A   Overcast
5:15 PM 58.3 °F - 52.0 °F 80% 29.87 in 10.0 mi WSW 4.6 mph - N/A   Overcast
5:35 PM 58.5 °F - 52.2 °F 80% 29.87 in 10.0 mi WSW 4.6 mph - N/A   Overcast
5:55 PM 58.5 °F - 52.2 °F 80% 29.87 in 10.0 mi West 3.5 mph - N/A   Overcast
6:15 PM 59.0 °F - 52.5 °F 79% 29.87 in 10.0 mi West 4.6 mph - N/A   Overcast
6:35 PM 58.6 °F - 52.3 °F 80% 29.87 in 10.0 mi West 5.8 mph - N/A   Overcast
6:55 PM 58.5 °F - 52.3 °F 80% 29.87 in 10.0 mi West 5.8 mph - N/A   Overcast
7:15 PM 58.5 °F - 52.3 °F 80% 29.87 in 10.0 mi West 4.6 mph - N/A   Overcast
7:35 PM 58.3 °F - 52.3 °F 81% 29.87 in 10.0 mi West 4.6 mph - N/A   Overcast
7:55 PM 57.6 °F - 52.2 °F 82% 29.87 in 10.0 mi West 3.5 mph - N/A   Mostly Cloudy
8:15 PM 57.9 °F - 52.7 °F 83% 29.88 in 10.0 mi West 3.5 mph - N/A   Overcast
8:35 PM 57.4 °F - 52.7 °F 84% 29.87 in 10.0 mi West 5.8 mph - N/A   Mostly Cloudy
8:55 PM 57.2 °F - 52.7 °F 85% 29.87 in 10.0 mi West 5.8 mph - N/A   Mostly Cloudy
9:35 PM 56.8 °F - 52.7 °F 86% 29.88 in 10.0 mi WNW 4.6 mph - N/A   Overcast
9:55 PM 57.0 °F - 52.9 °F 86% 29.89 in 10.0 mi WNW 4.6 mph - N/A   Overcast
10:15 PM 57.2 °F - 53.2 °F 87% 29.89 in 10.0 mi WNW 3.5 mph - N/A   Overcast
10:35 PM 57.2 °F - 53.6 °F 88% 29.88 in 10.0 mi WNW 4.6 mph - N/A   Overcast
10:55 PM 57.4 °F - 53.8 °F 88% 29.87 in 10.0 mi WNW 8.1 mph - N/A   Overcast
11:15 PM 57.6 °F - 54.0 °F 88% 29.87 in 10.0 mi NW 4.6 mph - N/A   Overcast
11:35 PM 57.4 °F - 53.8 °F 88% 29.87 in 10.0 mi NW 4.6 mph - N/A   Overcast
11:55 PM 57.2 °F - 53.8 °F 88% 29.86 in 10.0 mi NW 8.1 mph - N/A   Overcast